Regional Weather Roundup
Issued by NWS

Home | Current Version | Previous Version | Graphics & Text | Print | Product List | Glossary On
Versions: 1 2 3 4 5 6 7 8 9 10 11 12 13 14 15 16 17 18 19 20 21 22 23 24 25 26 27 28 29 30 31 32 33 34 35 36 37 38 39 40 41 42 43 44 45 46 47 48 49 50
000
ASUS45 KPSR 220510
RWRAZ

ARIZONA REGIONAL HOURLY WEATHER ROUNDUP
NATIONAL WEATHER SERVICE PHOENIX AZ
1000 PM MST THU AUG 21 2014

NOTE: FAIR INDICATES FEW OR NO CLOUDS BELOW 12,000 FEET WITH NO
SIGNIFICANT WEATHER AND/OR OBSTRUCTIONS TO VISIBILITY.

AZZ001>003-036-220600-
NORTHWEST ARIZONA

CITY           SKY/WX    TMP DP  RH WIND       PRES   REMARKS
BULLHEAD CITY  PTCLDY    81  57  44 S13       29.94R
KINGMAN        PTCLDY    66  58  75 CALM      30.09R
$$

AZZ004>008-015-016-018-220600-
NORTH CENTRAL ARIZONA

CITY           SKY/WX    TMP DP  RH WIND       PRES   REMARKS
GRAND CANYON     N/A    N/A N/A N/A MISG        N/A
WILLIAMS       MOCLDY    54  52  94 SE5       30.33S
PRESCOTT       MOCLDY    60  53  77 SW3       30.18S
FLAGSTAFF      CLOUDY    54  52  93 CALM      30.29F
PAYSON         CLOUDY    66  57  72 W10       30.20F
PAGE           LGT RAIN  73  51  46 S6        30.15S
$$

AZZ009>014-017-220600-
NORTHEAST ARIZONA

CITY           SKY/WX    TMP DP  RH WIND       PRES   REMARKS
WINSLOW        CLOUDY    65  60  84 CALM      30.18F
SAINT JOHNS    LGT RAIN  61  57  87 SE6       30.22S
WINDOW ROCK    LGT RAIN  60  51  72 N3        30.27
SHOW LOW       CLOUDY    57  52  82 CALM      30.29S
$$

AZZ023-220600-
GREATER PHOENIX AREA

CITY           SKY/WX    TMP DP  RH WIND       PRES   REMARKS
PHOENIX        LGT RAIN  72  67  84 W18       29.98R
BUCKEYE          N/A     72  72 100 CALM      29.98F
LUKE AFB       NOT AVBL
DEER VALLEY    LGT RAIN  72  65  78 SW7       30.02R
SCOTTSDALE     RAIN      70  67  90 W8        30.05R FOG
MESA-GATEWAY   MOCLDY    73  63  68 NW13      30.03R
$$

AZZ027-028-220600-
SOUTHWEST MARICOPA COUNTY AND PINAL COUNTY

CITY           SKY/WX    TMP DP  RH WIND       PRES   REMARKS
CASA GRANDE    PTCLDY    70  63  78 W18G24    30.01S
GILA BEND      MOCLDY    70  66  88 SE12      30.00F
$$

AZZ503-504-507>509-220600-
SOUTHEAST ARIZONA

CITY           SKY/WX    TMP DP  RH WIND       PRES   REMARKS
TUCSON         MOCLDY    77  64  64 SW6       30.07R
DAVIS-MONTHAN  PTCLDY    74  64  70 NW3       30.05R
NOGALES        LGT RAIN  70  66  87 N5        30.13R
SIERRA VISTA   LGT RAIN  66  63  88 W9        30.18R
DOUGLAS        PTCLDY    66  62  87 NW6       30.13S
SAFFORD        CLOUDY    77  58  51 NW12      30.03S
$$

AZZ020-021-025-026-031-220600-
SOUTHWEST ARIZONA

CITY           SKY/WX    TMP DP  RH WIND       PRES   REMARKS
YUMA           MOCLDY    73  65  75 W6        29.91R
$$

CAZ031-033-041-043-047-048-061-220600-
SOUTHERN CALIFORNIA

CITY           SKY/WX    TMP DP  RH WIND       PRES   REMARKS
DOWNTOWN L.A.  CLEAR     69  61  75 CALM      29.96R
L.A. AIRPORT   PTCLDY    68  63  84 W7        29.96R
SAN DIEGO      PTCLDY    71  63  75 NW7       29.97R
BURBANK        MOCLDY    71  60  68 SE7       29.96R
ONTARIO        PTCLDY    74  61  63 SW6       29.97R
RIVERSIDE      CLEAR     73  61  65 W3        29.97R
PALM SPRINGS   PTCLDY    82  59  45 E7        29.95S
EL CENTRO NAS  MOCLDY    72  68  87 NE7       29.90S
IMPERIAL       MOCLDY    74  67  78 N3        29.90S
BLYTHE         MOCLDY    72  68  87 CALM      29.93R
NEEDLES        MOCLDY    80  56  43 SW5       29.95R
$$

NVZ020-UTZ003-220600-
SOUTHERN NEVADA-UTAH

CITY           SKY/WX    TMP DP  RH WIND       PRES   REMARKS
LAS VEGAS      PTCLDY    79  48  33 SW9       29.95R
SALT LAKE CITY MOCLDY    69  47  45 SE5       30.00S
$$

NMZ009-TXZ055-220600-
NEW MEXICO-WEST TEXAS

CITY           SKY/WX    TMP DP  RH WIND       PRES   REMARKS
ALBUQUERQUE    CLOUDY    78  40  25 SW8G17    30.12S
EL PASO        CLOUDY    82  57  42 CALM      30.06S
$$


........................KEY........................
SKY/WX - SKY CONDITION/WEATHER
TMP    - TEMPERATURE IN FAHRENHEIT
DP     - DEW POINT IN FAHRENHEIT
RH     - RELATIVE HUMIDITY IN PERCENT
WIND   - DIRECTION AND SPEED IN MILES PER HOUR (MPH)
VRB    - VARIABLE WIND DIRECTION
PRES   - MEAN SEA LEVEL PRESSURE IN INCHES OF MERCURY
         F - FALLING PRESSURE   R - RISING PRESSURE
         S - STEADY PRESSURE
VSB    - VISIBILITY IN MILES
HX     - HEAT INDEX IN FAHRENHEIT
WCI    - WIND CHILL INDEX IN FAHRENHEIT
TC     - TEMPERATURE IN CELSIUS WHICH IS ALSO KNOWN AS
         TEMPERATURE IN CENTIGRADE
AFB    - AIR FORCE BASE
         LUKE AFB IS LUKE AIR FORCE BASE
         DAVIS-MONTHAN IS DAVIS-MONTHAN AIR FORCE BASE
NAS    - NAVAL AIR STATION
         EL CENTRO NAS IS EL CENTRO NAVAL AIR STATION
N/A    - NOT AVAILABLE



USA.gov is the U.S. government's official web portal to all federal, state and local government web resources and services.